Content
SEND FEEDBACK

Daily
Averages
Monthly
Summary
Malaysia

ALOR SETAR, MALAYSIA


Home > Asia > Malaysia
Elevation: 13 feet     Latitude: 06 11N     Longitude: 100 24E

WEATHER
 
SELECT A DAY
Number of Records: 90,417;   Date Range: 6/24/00 - 7/20/14
 
SHARE

PRINT THIS DATA

[ ← Previous Day ]
WEATHER ALMANAC - OCTOBER 8, 2013
[ Next Day → ]
[ °C ]   °F
We're sorry. There is no daily almanac available for Alor Setar, Malaysia on October 8, 2013.
WEATHER BY HOUR - OCTOBER 8, 2013
[ °C ]   °F
Local TimeTemperatureDewpointHumidityBarometerVisibilityWind DirectionWind SpeedGust SpeedPrecipitationEventsConditions
1:00 AM77.0 °F75.2 °F94 %29.86 in6.2 miESE (120°)4.6 mphMostly Cloudy
2:00 AM75.2 °F75.2 °F100 %29.83 in6.2 miEast (90°)3.5 mphMostly Cloudy
3:00 AM75.2 °F75.2 °F100 %29.83 in6.2 miEast (100°)2.3 mphRainLight Rain
4:00 AM75.2 °F75.2 °F100 %29.83 in6.2 miSSE (150°)8.1 mphRain-ThunderstormLight Thunderstorms and Rain
5:00 AM75.2 °F73.4 °F94 %29.83 in5.6 miSouth (170°)6.9 mphRain-ThunderstormLight Thunderstorms and Rain
6:00 AM75.2 °F73.4 °F94 %29.83 in6.2 miSSE (160°)5.8 mphRain-ThunderstormLight Thunderstorms and Rain
7:00 AM73.4 °F73.4 °F100 %29.86 in5.0 miSE (130°)6.9 mphRainLight Rain
8:00 AM73.4 °F73.4 °F100 %29.86 in4.3 miEast (100°)4.6 mphRainLight Rain
9:00 AM75.2 °F73.4 °F94 %29.86 in5.6 miENE (60°)2.3 mphRainLight Rain
10:00 AM77.0 °F75.2 °F94 %29.86 in6.2 miESE (110°)3.5 mphRainLight Rain
11:00 AM80.6 °F77.0 °F89 %29.86 in6.2 miESE (110°)3.5 mphMostly Cloudy
12:00 PM84.2 °F77.0 °F79 %29.86 in6.2 miSouth (170°)3.5 mphMostly Cloudy
1:00 PM86.0 °F77.0 °F74 %29.83 in6.2 miWest (260°)3.5 mphMostly Cloudy
2:00 PM87.8 °F78.8 °F75 %29.80 in6.2 miWest (260°)6.9 mphMostly Cloudy
3:00 PM84.2 °F77.0 °F79 %29.80 in6.2 miNW (310°)5.8 mphMostly Cloudy
4:00 PM86.0 °F78.8 °F79 %29.77 in6.2 miWNW (290°)6.9 mphMostly Cloudy
5:00 PM87.8 °F78.8 °F75 %29.77 in6.2 miWNW (300°)6.9 mphMostly Cloudy
6:00 PM84.2 °F77.0 °F79 %29.80 in6.2 miNW (310°)5.8 mphMostly Cloudy
7:00 PM82.4 °F77.0 °F84 %29.80 in6.2 miNNW (330°)3.5 mphMostly Cloudy
8:00 PM80.6 °F77.0 °F89 %29.83 in6.2 miNW (320°)2.3 mphMostly Cloudy
9:00 PM78.8 °F75.2 °F89 %29.86 in6.2 miNNW (330°)2.3 mphMostly Cloudy
10:00 PM75.2 °F71.6 °F89 %29.92 in2.5 miWest (280°)13.8 mph32.2 mphRainRain
11:00 PM73.4 °F71.6 °F94 %29.92 in4.3 miEast (80°)3.5 mphRainLight Rain
Hourly data recorded from WMKA, located miles away from Alor Setar, Malaysia







STORIES FROM OUR PARTNERS